[[{"header":{"parameterUnit":"m.s-1","parameterCategory":1,"la1":30.2991,"la2":30.254,"lo1":-89.0895,"lo2":-89.0444,"dy":0.0017,"dx":0.0017,"nx":28,"ny":28,"refTime":"2025-05-28T09:00:00:Z","depth":0,"parameterNumber":2,"parameterNumberName":"U-component_of_WINDS"},"data":[0,0,0,0,0,0,0,0,0,0,0,0,0,0,0,0,0,0,0,0,0,0,0,0,0,0,0,0,0,0,0,0,0,0,0,0,0,0,0,0,0,0,0,0,0,0,0,0,0,0,0,0,0,0,0,0,0,0,-5.2934,-5.2935,0,-5.3061,-5.3063,-5.3064,-5.2965,-5.2961,-5.2957,-5.2953,-5.3081,-5.3088,-5.3095,0,0,0,0,0,0,0,0,0,0,0,0,0,-5.2604,-5.261,-5.2934,-5.2936,-5.2937,-5.3061,-5.3063,-5.3065,-5.2966,-5.2961,-5.2955,-5.2951,-5.3078,-5.3087,-5.3096,0,0,0,0,0,0,0,0,0,0,0,0,0,-5.2741,-5.2612,-5.2934,-5.2903,-5.2901,-5.3061,-5.3063,-5.3065,-5.2967,-5.2961,-5.2954,-5.2948,-5.3075,-5.3086,-5.3097,-5.3293,0,0,-5.3131,-5.3136,0,0,0,0,0,0,0,0,-5.2733,-5.2753,-5.2906,-5.2905,-5.2904,-5.2991,-5.2993,-5.3141,-5.2969,-5.2942,-5.2952,-5.2945,-5.3056,-5.3068,-5.3106,-5.3299,-5.3304,-5.3132,-5.3138,-5.3143,-5.3146,0,0,0,0,0,0,0,-5.2724,-5.2747,-5.2984,-5.2908,-5.2907,-5.2882,-5.2895,-5.3021,-5.3033,-5.2944,-5.2937,-5.2953,-5.3054,-5.3095,-5.3108,-5.3306,-5.3131,-5.3141,-5.3148,-5.3152,-5.3666,-5.3673,0,0,0,0,0,0,-5.2717,-5.2739,-5.298,-5.2988,-5.2801,-5.2893,-5.2907,-5.2969,-5.3031,-5.3035,-5.2959,-5.2948,-5.308,-5.3095,-5.3112,-5.3345,-5.3143,-5.3153,-5.316,-5.3659,-5.3668,-5.3675,0,0,0,0,0,0,-5.2711,-5.274,-5.2975,-5.2862,-5.289,-5.2906,-5.2976,-5.2975,-5.3016,-5.3043,-5.3044,-5.2999,-5.3075,-5.3097,-5.3249,-5.3348,-5.3158,-5.3168,-5.3651,-5.3662,-5.3672,-5.3813,0,0,0,0,0,0,-5.2702,-5.2738,-5.2813,-5.2865,-5.2897,-5.3111,-5.2983,-5.2982,-5.3036,-5.3024,-5.3081,-5.3084,-5.3072,-5.3233,-5.326,-5.336,-5.3177,-5.3642,-5.3656,-5.3668,-5.38,-5.3827,-5.3851,0,0,0,0,0,-5.269,-5.2847,-5.2817,-5.2847,-5.2991,-5.3116,-5.3135,-5.3118,-5.3045,-5.312,-5.3137,-5.3082,-5.3334,-5.3249,-5.3279,-5.3384,-5.3636,-5.3652,-5.3667,-5.3788,-5.3822,-5.385,0,0,0,0,0,0,-5.2805,-5.2853,-5.282,-5.2999,-5.3055,-5.3099,-5.3193,-5.3154,-5.3231,-5.3216,-5.3191,-5.3205,-5.3365,-5.339,-5.3295,-5.3577,-5.3473,-5.3495,-5.3555,-5.3587,-5.3612,-5.3602,-5.3186,0,0,0,0,0,-5.2852,-5.2951,-5.2987,-5.3141,-5.3171,-5.3178,-5.3232,-5.3215,-5.3271,-5.3293,-5.3321,-5.3377,-5.3469,-5.3529,-5.3615,-5.3803,-5.3814,-5.389,-5.3916,-5.3937,-5.3956,-5.4057,-5.4091,-5.3727,-5.3727,-5.3727,0,0,-5.2948,-5.2987,-5.305,-5.3165,-5.3206,-5.3308,-5.3198,-5.3311,-5.3386,-5.331,-5.3455,-5.3479,-5.3539,-5.3711,-5.3787,-5.3736,-5.4059,-5.3957,-5.3973,-5.3981,-5.4077,-5.4112,-5.4142,-5.3738,-5.3736,-5.3734,0,0,-5.3176,-5.3216,-5.3348,-5.3392,-5.3456,-5.346,-5.3492,-5.3543,-5.3556,-5.3702,-5.3647,-5.3736,-5.3894,-5.394,-5.3984,-5.4231,-5.4184,-5.426,-5.4393,-5.4492,-5.4521,-5.4546,-5.4633,-5.4665,-5.4279,-5.428,-5.428,0,-5.3287,-5.344,-5.3421,-5.3538,-5.359,-5.3528,-5.3661,-5.3705,-5.3793,-5.383,-5.3772,-5.3969,-5.4006,-5.4187,-5.4247,-5.4285,-5.4321,-5.4252,-5.4518,-5.4543,-5.4567,-5.465,-5.4683,-5.4288,-5.4287,-5.4286,-5.4285,0,-5.3574,-5.3681,-5.378,-5.3868,-5.3931,-5.4056,-5.4056,-5.4122,-5.41,-5.411,-5.4259,-5.4302,-5.4395,-5.4437,-5.4415,-5.4615,-5.4581,-5.4522,-5.4416,-5.461,-5.4688,-5.472,-5.4301,-5.4298,-5.4295,-5.4293,0,0,-5.3876,-5.3953,-5.399,-5.4029,-5.4096,-5.4177,-5.43,-5.4392,-5.4449,-5.4513,-5.4614,-5.475,-5.4696,-5.4746,-5.4729,-5.4817,-5.5009,-5.4746,-5.4747,-5.4792,-5.5231,-5.5275,-5.5312,-5.4979,-5.4985,-5.499,-5.5226,0,-5.4106,-5.4319,-5.4307,-5.4507,-5.4605,-5.4548,-5.4654,-5.4707,-5.472,-5.4805,-5.4819,-5.4916,-5.4836,-5.4866,-5.495,-5.4968,-5.5097,-5.4951,-5.5072,-5.5077,-5.5057,-5.5353,-5.5399,-5.562,-5.5256,-5.5261,-5.5265,0,-5.4402,-5.4477,-5.4688,-5.4741,-5.4781,-5.4877,-5.4961,-5.5043,-5.5101,-5.5105,-5.5162,-5.5132,-5.5255,-5.5148,-5.5317,-5.5218,-5.5267,-5.5284,-5.5292,-5.5301,-5.5182,-5.5369,-5.569,-5.5723,-5.5313,-5.5309,-5.5306,0,-5.46,-5.4754,-5.49,-5.4936,-5.5001,-5.507,-5.51,-5.5152,-5.5208,-5.5282,-5.5318,-5.5404,-5.5451,-5.5519,-5.5513,-5.5436,-5.5685,-5.5577,-5.569,-5.569,-5.5743,-5.574,-5.6075,-5.5778,-5.5777,-5.5777,-5.5776,0,-5.4858,-5.4989,-5.499,-5.508,-5.5224,-5.5209,-5.5352,-5.5375,-5.5422,-5.5515,-5.5471,-5.5559,-5.5546,-5.5634,-5.563,-5.577,-5.5792,-5.5798,-5.5795,-5.5801,-5.58,-5.5832,-5.5816,-5.5786,-5.5784,-5.5782,-5.578,0,-5.5103,-5.5109,-5.5264,-5.5314,-5.533,-5.5434,-5.5476,-5.5561,-5.5571,-5.5689,-5.5716,-5.5732,-5.5833,-5.5834,-5.595,-5.5947,-5.6119,-5.6099,-5.6099,-5.6095,-5.6207,-5.6196,-5.6573,-5.6622,-5.6294,-5.6297,-5.63,0,-5.5266,-5.5365,-5.5427,-5.5486,-5.5521,-5.5617,-5.5675,-5.5663,-5.5725,-5.58,-5.5876,-5.5973,-5.605,-5.6215,-5.6237,-5.6325,-5.6306,-5.6433,-5.6319,-5.6323,-5.6307,-5.6301,-5.631,-5.6454,-5.6458,-5.6461,-5.6463,0,-5.5555,-5.5553,-5.5638,-5.5726,-5.5796,-5.5864,-5.5927,-5.5978,-5.5973,-5.6045,-5.6149,-5.6209,-5.6328,-5.6425,-5.6511,-5.6541,-5.6502,-5.6499,-5.653,-5.6536,-5.6532,-5.6535,-5.6158,-5.649,-5.6487,-5.6485,-5.6484,-5.6483,-5.5763,-5.5849,-5.5905,-5.6002,-5.6048,-5.6108,-5.619,-5.6212,-5.6298,-5.6394,-5.6383,-5.6498,-5.6554,-5.6666,-5.6704,-5.6794,-5.675,-5.6794,-5.6805,-5.6816,-5.6828,-5.6519,-5.681,-5.6809,-5.6808,-5.6807,-5.6807,0,-5.6048,-5.6082,-5.6172,-5.6261,-5.6337,-5.6295,-5.6363,-5.6429,-5.6531,-5.6588,-5.6665,-5.6785,-5.6879,-5.6909,-5.7,-5.7067,-5.7051,-5.7091,-5.7085,-5.7093,-5.6863,-5.6826,-5.7102,-5.7102,-5.7102,-5.7102,-5.7102,-5.7102,-5.6206,-5.6348,-5.6354,-5.652,-5.6552,-5.6666,-5.6708,-5.6763,-5.6808,-5.6943,-5.7022,-5.7041,-5.7087,-5.7182,-5.7267,-5.7273,-5.7308,-5.7355,-5.7354,-5.7138,-5.7109,-5.708,-5.7046,-5.7364,-5.7364,-5.7577,-5.7578,-5.758]},{"header":{"parameterUnit":"m.s-1","parameterCategory":1,"la1":30.2991,"la2":30.254,"lo1":-89.0895,"lo2":-89.0444,"dy":0.0017,"dx":0.0017,"nx":28,"ny":28,"refTime":"2025-05-28T09:00:00:Z","depth":0,"parameterNumber":3,"parameterNumberName":"V-component_of_WINDS"},"data":[0,0,0,0,0,0,0,0,0,0,0,0,0,0,0,0,0,0,0,0,0,0,0,0,0,0,0,0,0,0,0,0,0,0,0,0,0,0,0,0,0,0,0,0,0,0,0,0,0,0,0,0,0,0,0,0,0,0,-0.3712,-0.3712,0,-0.3684,-0.3684,-0.3684,-0.3613,-0.3612,-0.361,-0.3609,-0.3582,-0.3583,-0.3584,0,0,0,0,0,0,0,0,0,0,0,0,0,-0.3705,-0.3706,-0.3712,-0.3712,-0.3711,-0.3684,-0.3684,-0.3683,-0.3613,-0.3612,-0.361,-0.3608,-0.3582,-0.3583,-0.3584,0,0,0,0,0,0,0,0,0,0,0,0,0,-0.3696,-0.3706,-0.3712,-0.3673,-0.3669,-0.3684,-0.3684,-0.3683,-0.3614,-0.3612,-0.3609,-0.3607,-0.3582,-0.3583,-0.3584,-0.3635,0,0,-0.3587,-0.3588,0,0,0,0,0,0,0,0,-0.3697,-0.3697,-0.3679,-0.3676,-0.3672,-0.365,-0.3672,-0.3667,-0.3614,-0.3635,-0.3609,-0.3606,-0.3607,-0.3606,-0.3605,-0.3634,-0.3633,-0.3587,-0.3588,-0.3588,-0.3589,0,0,0,0,0,0,0,-0.3698,-0.3697,-0.3701,-0.3679,-0.3674,-0.3657,-0.3653,-0.3671,-0.3634,-0.3633,-0.3628,-0.3625,-0.3604,-0.3605,-0.3604,-0.3632,-0.3587,-0.3588,-0.3589,-0.3589,-0.3701,-0.3703,0,0,0,0,0,0,-0.3704,-0.3698,-0.3702,-0.37,-0.3679,-0.3659,-0.3655,-0.3659,-0.3633,-0.3627,-0.3627,-0.3622,-0.3604,-0.3603,-0.3603,-0.3661,-0.3588,-0.3589,-0.359,-0.3698,-0.3701,-0.3704,0,0,0,0,0,0,-0.3704,-0.3705,-0.3703,-0.3698,-0.3696,-0.3662,-0.3667,-0.366,-0.366,-0.3629,-0.3622,-0.3634,-0.3602,-0.3602,-0.3627,-0.3659,-0.359,-0.3591,-0.3695,-0.3699,-0.3702,-0.3777,0,0,0,0,0,0,-0.3704,-0.3705,-0.3724,-0.3699,-0.3697,-0.3728,-0.3669,-0.3661,-0.3662,-0.3655,-0.3634,-0.3628,-0.36,-0.3626,-0.3628,-0.3659,-0.3591,-0.3692,-0.3697,-0.3701,-0.3772,-0.3783,-0.3793,0,0,0,0,0,-0.3704,-0.3747,-0.3725,-0.3726,-0.372,-0.373,-0.3729,-0.3695,-0.3665,-0.3683,-0.3663,-0.3629,-0.3655,-0.3629,-0.3631,-0.3663,-0.369,-0.3696,-0.3701,-0.3767,-0.3781,-0.3792,0,0,0,0,0,0,-0.3778,-0.3743,-0.3719,-0.3755,-0.3746,-0.3718,-0.3741,-0.3711,-0.371,-0.3704,-0.3663,-0.3659,-0.369,-0.3679,-0.3651,-0.3711,-0.3667,-0.3673,-0.3717,-0.373,-0.374,-0.3742,-0.3592,0,0,0,0,0,-0.3798,-0.3809,-0.3778,-0.3813,-0.3809,-0.3776,-0.3779,-0.3754,-0.3743,-0.3739,-0.3721,-0.3712,-0.3718,-0.3723,-0.3727,-0.377,-0.3764,-0.3792,-0.3803,-0.3811,-0.3817,-0.3838,-0.385,-0.3721,-0.3721,-0.3721,0,0,-0.3841,-0.3823,-0.3833,-0.3827,-0.3817,-0.3829,-0.3773,-0.3789,-0.3797,-0.3741,-0.3764,-0.3751,-0.3738,-0.3773,-0.3787,-0.3764,-0.3851,-0.3818,-0.3825,-0.3826,-0.3845,-0.3857,-0.3868,-0.3724,-0.3724,-0.3723,0,0,-0.3925,-0.3913,-0.394,-0.3931,-0.3915,-0.3893,-0.3899,-0.3876,-0.3864,-0.3886,-0.3844,-0.3854,-0.3866,-0.3858,-0.3856,-0.3935,-0.3904,-0.3938,-0.3992,-0.4013,-0.4023,-0.4032,-0.4061,-0.4071,-0.3943,-0.3944,-0.3944,0,-0.398,-0.3996,-0.3958,-0.3976,-0.3975,-0.3923,-0.3951,-0.3944,-0.3931,-0.3932,-0.3906,-0.3919,-0.3907,-0.3938,-0.3957,-0.3957,-0.3964,-0.394,-0.4025,-0.4033,-0.4041,-0.4068,-0.4078,-0.3948,-0.3947,-0.3947,-0.3947,0,-0.4065,-0.4077,-0.41,-0.4089,-0.409,-0.4113,-0.4078,-0.4084,-0.4058,-0.4038,-0.4061,-0.4044,-0.4044,-0.4049,-0.4025,-0.4077,-0.4063,-0.4032,-0.3988,-0.4058,-0.4083,-0.4092,-0.3954,-0.3953,-0.3951,-0.395,0,0,-0.4196,-0.4161,-0.4171,-0.4165,-0.4144,-0.4152,-0.4172,-0.417,-0.4176,-0.4169,-0.4185,-0.4195,-0.4165,-0.4163,-0.4137,-0.4155,-0.4219,-0.4121,-0.412,-0.414,-0.4276,-0.43,-0.4313,-0.4197,-0.4199,-0.4201,-0.4277,0,-0.4275,-0.4307,-0.4273,-0.4312,-0.4322,-0.4273,-0.429,-0.4279,-0.4261,-0.4267,-0.4246,-0.4254,-0.4214,-0.4212,-0.4228,-0.4208,-0.4246,-0.4202,-0.4212,-0.4213,-0.4218,-0.4325,-0.4351,-0.4424,-0.4286,-0.4288,-0.4289,0,-0.4372,-0.4368,-0.4408,-0.4384,-0.4387,-0.4403,-0.4398,-0.4405,-0.4391,-0.4376,-0.4373,-0.4341,-0.4358,-0.4314,-0.4339,-0.4309,-0.4311,-0.4302,-0.4304,-0.4304,-0.4256,-0.4329,-0.4446,-0.4458,-0.4303,-0.4302,-0.4301,0,-0.4464,-0.4469,-0.4493,-0.4489,-0.4461,-0.4474,-0.4463,-0.4447,-0.4448,-0.4444,-0.4444,-0.4442,-0.4442,-0.4441,-0.4409,-0.438,-0.4437,-0.4391,-0.4426,-0.4427,-0.4441,-0.4441,-0.4561,-0.4442,-0.4441,-0.4441,-0.4441,0,-0.4557,-0.4583,-0.4534,-0.4549,-0.4577,-0.4537,-0.4566,-0.455,-0.4536,-0.4547,-0.4504,-0.4516,-0.4473,-0.448,-0.4455,-0.4479,-0.4479,-0.4467,-0.4461,-0.4472,-0.4473,-0.4473,-0.4467,-0.4444,-0.4443,-0.4443,-0.4442,0,-0.4665,-0.4633,-0.4656,-0.4627,-0.462,-0.4642,-0.4618,-0.463,-0.4608,-0.4623,-0.4624,-0.459,-0.4596,-0.4564,-0.4564,-0.4547,-0.4583,-0.4568,-0.4588,-0.4583,-0.4621,-0.4618,-0.4746,-0.4761,-0.4631,-0.4632,-0.4633,0,-0.4726,-0.4745,-0.4718,-0.4722,-0.4713,-0.472,-0.472,-0.4681,-0.4683,-0.4668,-0.4683,-0.4685,-0.4685,-0.4696,-0.4672,-0.4671,-0.4656,-0.47,-0.4656,-0.4666,-0.4657,-0.4656,-0.4658,-0.471,-0.4712,-0.4713,-0.4714,0,-0.4839,-0.4822,-0.4824,-0.482,-0.4821,-0.4816,-0.4809,-0.4815,-0.4772,-0.4777,-0.4782,-0.4781,-0.4781,-0.4783,-0.4778,-0.4766,-0.4734,-0.4728,-0.4736,-0.4749,-0.476,-0.4755,-0.4614,-0.4726,-0.4725,-0.4724,-0.4723,-0.4723,-0.4926,-0.494,-0.4923,-0.4926,-0.4916,-0.4909,-0.492,-0.4899,-0.4902,-0.4898,-0.4874,-0.4884,-0.4868,-0.4858,-0.4849,-0.4856,-0.4835,-0.4847,-0.485,-0.4854,-0.486,-0.4758,-0.4855,-0.4854,-0.4854,-0.4854,-0.4853,0,-0.5036,-0.5022,-0.5026,-0.5016,-0.5018,-0.4986,-0.4975,-0.498,-0.4988,-0.4977,-0.4977,-0.4982,-0.4984,-0.4959,-0.4958,-0.4968,-0.4953,-0.4969,-0.4968,-0.4966,-0.4879,-0.4872,-0.4981,-0.4981,-0.4981,-0.4981,-0.4981,-0.4981,-0.5094,-0.5117,-0.5098,-0.5115,-0.51,-0.5108,-0.5105,-0.5099,-0.5089,-0.5097,-0.5098,-0.5081,-0.5064,-0.5061,-0.5061,-0.5054,-0.5056,-0.5077,-0.5065,-0.4985,-0.4972,-0.4961,-0.4954,-0.5078,-0.5078,-0.5151,-0.5152,-0.5152]}]]